sat.trackr.live / text

‹ back to catalog

STARLINK-5406

NORAD 54860 · 2022-177AS

PAYLOAD ACTIVE UNKNOWN

§ Identity

Operator
Country
US
Launch date
2022-12-28
Launch site
AFETR
Launch vehicle
Mass (kg)
RCS (m²)

Purposes: comms

External: N2YO · Heavens-Above · Gunter

§ Orbital elements

Epoch: 2026-09-20T21:41:24.973728Z

Period
94.27 min
Inclination
43.0018°
Eccentricity
0.0001174
Mean motion
15.27575996 rev/d
Perigee alt
482.3 km
Apogee alt
483.9 km
Semi-major
6,861.2 km
B*
1.2659e-5
RAAN
99.3170°
Arg perigee
262.8540°
Mean anomaly
97.2178°
Rev number
20,694

§ Raw data

STARLINK-54061 54860U 22177AS  26263.90376127  .00000086  00000+0  12659-4 0  99962 54860  43.0018  99.3170 0001174 262.8540  97.2178 15.27575996206941

JSON: /api/v1/satellites/54860 · /tle

For live sub-satellite position, see the globe view (requires WebGL).

§ Visibility from observer

Set your observer location to see the next 7 days of passes ≥ 10°. The values pass through the URL so the page stays shareable.

No JS? Fill the form by hand. The geolocation button needs JavaScript.